{"data":{"norad_id":67637,"intl_designator":"2026-020W","name":"STARLINK-36610","alt_names":[],"object_type":"PAYLOAD","status":"ACTIVE","operator":null,"country":"US","launch_date":"2026-01-30","launch_site_code":"AFETR","launch_vehicle":null,"mission":null,"orbit_class":"UNKNOWN","rcs_meters":null,"size_class":null,"mass_kg":null,"dimensions":null,"purposes":["comms"],"wikipedia_slug":null,"has_3d_model":false,"image_url":null,"decayed_at":null,"tle_current":{"epoch":"2026-05-25T02:54:32.361696Z","epoch_age_seconds":60712,"freshness":"FRESH","line1":"1 67637U 26020W   26145.12120789  .00020541  00000+0  75360-3 0  9992","line2":"2 67637  43.0030  68.0589 0001722 272.3205  87.7449 15.27591911 17806","mean_motion":15.27591911,"eccentricity":0.0001722,"inclination_deg":43.003,"raan_deg":68.0589,"arg_perigee_deg":272.3205,"mean_anomaly_deg":87.7449,"bstar":0.0007536,"rev_number":1780,"period_min":94.266013693234,"perigee_km":481.83194034832,"apogee_km":484.19492055656,"semimajor_km":6861.1504304524,"source":"CELESTRAK","updated_at":"2026-05-25T13:38:21.653779Z"}}}